Taurus 1
1 44530U 19059C   25027.89352202  .00013506  00000-0  26721-2 0  9992
2 44530  98.5898 161.4453 0009650  85.9467 274.2836 14.62427490284520
Duchifat 3
1 44854U 19089C   25027.42049045  .00040018  00000-0  12430-2 0  9991
2 44854  36.9490 112.9630 0009897 170.3442 189.7502 15.32391852282489
TO-108
1 44881U 19093C   25027.85127180  .00001946  00000-0  23379-3 0  9992
2 44881  97.8072 106.2460 0012914 311.0227  48.9871 14.85053588276371
FloripaSat 1
1 44885U 19093G   25027.82598068  .00009790  00000-0  88176-3 0  9991
2 44885  97.8246 115.3770 0010535 291.1271  68.8823 14.95762513276887
RS-44
1 44909U 19096E   25027.25592701  .00000009  00000-0 -57417-6 0  9998
2 44909  82.5248 315.8802 0216362 247.2622 110.5484 12.79737926237636
UPMSat 2
1 46276U 20061E   25027.47594270  .00043538  00000-0  74898-3 0  9990
2 46276  97.2668  99.1027 0001298  63.9164 296.2221 15.50984041244722
AmicalSat
1 46287U 20061R   25010.85863821  .11283921  24654-5  56408-3 0  9994
2 46287  97.2840  89.8720 0009935 281.1985  78.8199 16.41970930241877
SALSAT
1 46495U 20068K   25027.87830504  .00012351  00000-0  58558-3 0  9991
2 46495  97.8451   0.2149 0010287 260.3296  99.6775 15.19404611238352
CubeSX-Sirius-HSE
1 47951U 21022V   25027.89629598  .00081049  00000-0  14587-2 0  9994
2 47951  97.4376 294.5961 0011707  62.4425 297.8014 15.49465872213052
CubeSX-HSE
1 47952U 21022W   25027.88155940  .00081814  00000-0  14535-2 0  9992
2 47952  97.4367 294.7483 0011755  61.8460 298.3977 15.49831603213063
KSU-Cubesat
1 47954U 21022Y   25027.25819280  .00156855  00000-0  15785-2 0  9995
2 47954  97.4355 297.6732 0010140  64.3986 295.8320 15.64864392212914
GRBAlpha
1 47959U 21022AD  25027.45436070  .00071717  00000-0  12837-2 0  9992
2 47959  97.4367 294.4723 0011747  63.5363 296.7091 15.49658947211825
Orbicraft-Zorkiy
1 47960U 21022AE  25027.82361931  .00100360  00000-0  12972-2 0  9995
2 47960  97.4365 297.6558 0010565  61.0302 299.2012 15.58541590212725
TUBIN
1 48900U 21059X   25027.90033044  .00042040  00000-0  85278-3 0  9990
2 48900  97.6633 187.9104 0005317   7.8269 352.3061 15.46242550199446
LEDSAT
1 49069U 21073D   25027.42639280  .00045943  00000-0  10540-2 0  9998
2 49069  97.4087 105.2192 0013088 202.2480 157.8201 15.42502235190792
CUTE
1 49263U 21088D   25027.15620538  .00049266  00000-0  12531-2 0  9990
2 49263  97.4688 100.0892 0009490  13.1108 347.0382 15.39401563183842
TeikyoSat 4
1 49396U 21102B   25027.10616776  .00003684  00000-0  25229-3 0  9991
2 49396  97.4313  70.2899 0011409 225.5973 134.4322 15.06620341176442
Z-Sat
1 49399U 21102E   25027.86562615  .00007988  00000-0  46103-3 0  9994
2 49399  97.4016  73.3766 0018210 199.6730 160.3801 15.12461882176902
KOSEN 1
1 49402U 21102H   25027.07060827  .00011313  00000-0  56897-3 0  9998
2 49402  97.3935  75.1054 0016741 180.4326 179.6896 15.17274298177021
HO-113
1 50466U 21131B   25027.89907193  .00001431  00000-0  46385-3 0  9999
2 50466  98.5159 117.9279 0004531 161.8556 198.2795 14.40487322162343
IRIS-A
1 51044U 22002BN  25027.14619717  .00065484  00000-0  98043-3 0  9996
2 51044  97.3505 101.5953 0003798 311.6289  48.4639 15.54750700168919
Foresail-1
1 52766U 22057AL  25027.36597602  .00062874  00000-0  94799-3 0  9994
2 52766  97.5970 167.7076 0005687  38.1111 322.0543 15.54558547148988
SNUGLITE 2
1 52899U 22065F   25027.32039040  .00002810  00000-0  56320-3 0  9995
2 52899  98.1452 170.8209 0007831 164.1249 196.0199 14.62512001137005
IO-117
1 53106U 22080B   25027.56054429 -.00000003  00000-0  00000-0 0  9992
2 53106  70.1423 114.5706 0008128  54.9517 305.1905  6.42557612 59687
FO-118
1 54684U 22167C   25027.90571169  .00259605  00000-0  18431-2 0  9995
2 54684  97.6096 189.6245 0004608 359.8220   0.3041 15.73138019119005
SO-120
1 56992U 23084BU  25027.81822497  .00641038  00000-0  26040-2 0  9991
2 56992  97.5261 161.8805 0010043 296.6697  63.3544 15.84598515 90886
UmKA 1 (RS40S)
1 57172U 23091G   25027.44737216  .00008911  00000-0  51038-3 0  9996
2 57172  97.5806  83.6085 0016562  75.2141 285.0923 15.12733952 87337
CubeBel-2 (EU11S)
1 57175U 23091K   25027.43554960  .00013744  00000-0  73027-3 0  9993
2 57175  97.5808  84.0732 0014544  84.5409 275.7481 15.15326333 87366
VERONIKA
1 58261U 23174F   25027.79925578  .00061937  00000-0  14382-2 0  9993
2 58261  97.4332 109.1105 0007799 164.7222 195.4262 15.42121390 68051
KAFASAT
1 58317U 23174BP  25027.82202040  .00144866  00000-0  19126-2 0  9995
2 58317  97.4228 111.9417 0004000 138.6170 221.5389 15.57873718 68266
ENSO
1 58470U 23185J   25027.84905846  .00045535  00000-0  11355-2 0  9992
2 58470  97.3953 100.2125 0008747 195.8095 164.2879 15.40032234 64502
EIRSAT-1
1 58472U 23185L   25027.84679513  .00059048  00000-0  13094-2 0  9999
2 58472  97.3945 100.7857 0007960 196.4868 163.6122 15.43511586 64546
SONATE-2
1 59112U 24043Q   25027.23744002  .00022701  00000-0  80745-3 0  9998
2 59112  97.4956 156.5518 0011688 226.6233 133.4034 15.28927760 49917
MO-122
1 60209U 24125G   25027.08046870  .00023110  00000-0  81259-3 0  9995
2 60209  97.2951 240.6639 0020406 255.5282 104.3694 15.29160972 31501
GRBBeta
1 60237U 24128C   25027.49768938  .00006956  00000-0  55564-3 0  9999
2 60237  61.9914 182.9005 0037574  26.2480 334.0503 15.00580855 30214
Curium One
1 60242U 24128H   25027.49877710  .00011134  00000-0  85378-3 0  9994
2 60242  61.9820 182.6782 0037656  20.1559 340.1008 15.01687979 30221
ROBUSTA-3A
1 60243U 24128J   25027.39916509  .00009335  00000-0  72644-3 0  9996
2 60243  61.9887 183.4563 0035797  18.1433 342.0925 15.01328627 30202
CatSat
1 60246U 24125J   25027.14598812  .00016182  00000-0  60596-3 0  9993
2 60246  97.2745 241.1894 0045324 207.0906 152.7968 15.26380110 29607
AO-123
1 61781U 24199AY  25027.81634855  .00013197  00000-0  52570-3 0  9997
2 61781  97.3761 257.3208 0015865 312.6343  47.3556 15.25237175 56629
POEM 4 (BGS ARPIT)
1 62461U 24253C   25027.66437524  .00116519  00000-0  68772-3 0  9994
2 62461  55.2214 122.2097 0009273   1.3061 358.8010 15.77323423  4393
